Corsicana, TX

9:12 AM CST on January 23, 2018 (GMT -0600)
Campbell-Corsicana Municipal

Weather History for KCRS - April, 2014

Change the Weather History Date:

Wednesday, April 2, 2014

  Actual Average (KTYR) Record (KTYR)
Temperature  
Mean Temperature 76 °F -  
Max Temperature 82 °F 71 °F 90 °F (1943)
Min Temperature 70 °F 51 °F 29 °F (1962)
Cooling Degree Days 11    
Growing Degree Days 26 (Base 50)    
Moisture  
Dew Point 66 °F    
Average Humidity 75    
Maximum Humidity 90    
Minimum Humidity 62    
Precipitation  
Precipitation 0.00 in - - ()
Sea Level Pressure  
Sea Level Pressure 29.82 in    
Wind  
Wind Speed 15 mph (SSE)    
Max Wind Speed 22 mph    
Max Gust Speed 32 mph    
Visibility 9 miles    
Events Rain    
Averages and records for this station are not official NWS values.
T = Trace of Precipitation, MM = Missing Value Source: NWS Daily Summary

Daily Weather History Graph

Daily Weather History Graph

Search for Another Location

Airport or City:

Trip Planner

Search our weather history database for the weather conditions in past years. The results will help you decide how hot, cold, wet, or windy it might be!

Date:

Astronomy

Apr. 02, 2014 Rise Set
Actual Time 7:12 AM CDT 7:46 PM CDT
Civil Twilight 6:48 AM CDT 8:10 PM CDT
Nautical Twilight 6:19 AM CDT 8:39 PM CDT
Astronomical Twilight 5:49 AM CDT 9:09 PM CDT
Moon 9:07 AM CDT (4/2) 10:59 PM CDT (4/2)
Length of Visible Light 13h 22m
Length of Day
12h 33m
Waxing Crescent, 10% of the Moon is Illuminated
Apr 2
Waxing Crescent
Apr 7
First Quarter
Apr 15
Full
Apr 22
Last Quarter
Apr 29
New

Hourly Weather History & Observations

Time (CDT) Temp. Heat Index Dew Point Humidity Pressure Visibility Wind Dir Wind Speed Gust Speed Precip Events Conditions
12:53 AM 72.0 °F - 66.0 °F 81% 29.88 in 10.0 mi South 11.5 mph - N/A   Clear
1:53 AM 71.1 °F - 66.0 °F 84% 29.87 in 10.0 mi South 15.0 mph - N/A   Mostly Cloudy
2:53 AM 72.0 °F - 66.0 °F 81% 29.86 in 10.0 mi South 16.1 mph - N/A   Overcast
3:53 AM 71.1 °F - 64.9 °F 81% 29.84 in 9.0 mi South 15.0 mph - N/A   Mostly Cloudy
4:23 AM 71.1 °F - 64.9 °F 81% 29.85 in 8.0 mi South 13.8 mph - N/A   Overcast
4:53 AM 71.1 °F - 64.9 °F 81% 29.84 in 9.0 mi South 16.1 mph - N/A   Overcast
5:23 AM 71.1 °F - 66.0 °F 84% 29.85 in 10.0 mi South 11.5 mph - N/A   Overcast
5:53 AM 71.1 °F - 66.0 °F 84% 29.84 in 10.0 mi South 13.8 mph - N/A   Overcast
7:53 AM 71.1 °F - 66.9 °F 87% 29.86 in 7.0 mi SE 9.2 mph - 0.00 in   Overcast
8:53 AM 70.0 °F - 66.9 °F 90% 29.87 in 5.0 mi SE 9.2 mph - N/A   Overcast
9:53 AM 72.0 °F - 68.0 °F 87% 29.87 in 6.0 mi SSE 11.5 mph - N/A   Overcast
10:02 AM 73.0 °F - 68.0 °F 84% 29.88 in 6.0 mi SSE 12.7 mph - N/A   Haze
10:53 AM 75.9 °F - 66.9 °F 74% 29.86 in 9.0 mi South 15.0 mph - N/A   Overcast
11:53 AM 78.1 °F - 68.0 °F 71% 29.85 in 10.0 mi South 19.6 mph - N/A   Overcast
12:00 PM 78.1 °F - 68.0 °F 71% 29.86 in 10.0 mi South 16.1 mph - N/A   Overcast
12:53 PM 80.1 °F 82.7 °F 68.0 °F 67% 29.83 in 10.0 mi South 19.6 mph - N/A   Overcast
1:01 PM 80.1 °F 82.7 °F 68.0 °F 67% 29.84 in 10.0 mi South 16.1 mph - N/A   Overcast
1:53 PM 82.0 °F 84.9 °F 68.0 °F 62% 29.81 in 10.0 mi South 20.7 mph 32.2 mph N/A   Overcast
2:53 PM 80.1 °F 82.1 °F 66.0 °F 62% 29.79 in 10.0 mi South 18.4 mph 26.5 mph N/A   Overcast
3:53 PM 79.0 °F - 66.0 °F 64% 29.77 in 10.0 mi South 12.7 mph - 0.00 in Rain Light Rain
5:53 PM 79.0 °F - 64.9 °F 62% 29.74 in 10.0 mi South 15.0 mph - N/A   Overcast
6:53 PM 78.1 °F - 64.9 °F 64% 29.73 in 10.0 mi SSE 16.1 mph - N/A   Overcast
7:53 PM 77.0 °F - 66.0 °F 69% 29.72 in 10.0 mi SSE 15.0 mph - 0.00 in   Overcast
8:53 PM 78.1 °F - 64.9 °F 64% 29.74 in 10.0 mi SSE 19.6 mph 29.9 mph N/A   Overcast
9:53 PM 75.9 °F - 66.0 °F 71% 29.75 in 10.0 mi South 21.9 mph 28.8 mph N/A   Overcast
10:18 PM 75.9 °F - 66.9 °F 74% 29.77 in 10.0 mi South 21.9 mph 27.6 mph N/A   Overcast
10:53 PM 75.9 °F - 66.9 °F 74% 29.76 in 10.0 mi South 17.3 mph 26.5 mph N/A   Overcast
11:53 PM 75.0 °F - 68.0 °F 79% 29.76 in 10.0 mi South 17.3 mph 24.2 mph N/A   Overcast